Location: Unspecified
(0.0000°N, 0.0000°E)
Time: 11:04:46
(UTC+00:00)

CBERS-1 - Pass Details

Date: 13 June 2023
Orbit: 767 x 776 km, 98.8° (Epoch: 21 September)

Event Time Altitude Azimuth Distance (km) Brightness Sun altitude
Rises 04:04:42 0° 347° (NNW) 3,239 7.4 -26.3°
Reaches altitude 10° 04:07:27 10° 333° (NNW) 2,316 6.5 -25.7°
Enters shadow 04:08:21 14° 325° (NW) 2,066 6.1 -25.5°
